Theta_e
336 342 343 345 346 338 339 340 339 338 339 341 341 342 343 342 339 346 341 339 336 335 343 343 342 340 339 338 338 337 337 338 335 333 331 332 331 328 328 329 329 328 329 329 329 329 329 329 329
342 343 345 343 339 337 338 339 338 340 340 342 342 342 343 343 340 341 340 340 336 339 342 341 341 341 339 339 336 338 338 336 334 332 331 331 327 327 328 327 326 326 326 327 327 327 327 327 328
342 343 346 341 336 338 338 339 341 341 342 342 344 343 342 343 341 339 339 339 337 340 340 343 339 341 341 339 338 337 337 335 333 331 330 327 327 327 327 326 325 326 326 327 327 327 327 328 327
344 344 344 341 339 339 339 339 341 342 342 342 344 344 341 339 337 335 337 338 339 340 340 335 336 341 339 338 333 331 331 332 333 331 329 327 327 327 328 328 327 328 328 329 329 330 330 331 331
343 343 341 342 340 340 340 341 341 342 342 343 343 344 342 339 338 338 339 338 340 341 340 340 334 336 335 333 329 322 329 330 331 329 327 326 326 326 327 329 329 329 328 329 329 329 328 328 328
345 342 341 341 340 339 339 339 341 341 342 344 344 344 343 341 341 340 339 339 342 342 339 342 334 332 332 331 323 321 330 329 330 329 324 323 324 325 325 327 330 330 330 329 328 327 327 324 320
344 343 342 342 341 341 340 340 342 342 342 344 344 344 344 342 342 342 340 341 342 343 340 341 341 338 334 328 320 320 323 327 325 323 323 323 323 324 324 325 328 329 330 328 327 326 321 319 319
344 344 342 341 342 341 339 340 340 341 344 342 343 344 345 343 342 342 341 342 343 343 340 341 341 339 336 330 320 321 322 322 322 323 324 324 323 322 325 322 328 327 329 321 319 319 319 318 319
342 344 342 341 341 341 339 339 340 339 344 344 343 342 341 343 343 342 342 342 344 344 342 340 339 338 336 332 329 324 322 322 322 324 323 325 325 324 326 323 322 323 319 319 319 319 319 319 318
343 342 340 339 339 340 339 339 339 343 344 344 343 344 344 344 344 343 343 343 344 345 344 341 339 337 336 332 333 333 332 331 328 327 327 325 325 324 324 324 320 320 319 319 319 319 319 322 321
341 340 340 338 339 339 340 339 340 342 344 342 340 343 345 344 344 343 343 343 344 346 345 342 341 339 336 333 334 334 333 332 329 328 327 326 324 324 323 324 324 323 321 323 323 323 322 323 323
341 339 342 341 340 341 342 341 343 344 346 343 342 344 345 345 344 343 343 343 344 345 346 343 341 341 338 335 334 334 333 332 330 328 329 327 325 325 325 324 324 324 323 324 324 322 323 324 324
339 339 343 342 340 342 342 344 345 347 345 343 342 343 345 345 344 344 344 344 343 345 346 345 342 342 340 337 335 334 334 332 331 329 329 327 326 327 326 325 324 325 324 324 323 322 323 324 324
338 341 343 343 344 344 344 344 344 347 346 343 343 343 343 344 344 344 343 344 344 345 346 346 343 343 341 338 335 334 335 333 332 330 329 328 328 328 327 326 325 325 324 325 323 323 323 323 324
340 342 342 343 343 344 343 345 347 347 346 344 343 343 342 342 341 341 340 340 340 340 345 346 344 343 342 340 336 335 335 334 332 330 330 330 329 330 330 327 327 326 325 325 323 324 324 324 324
341 340 340 344 343 343 343 348 348 345 347 347 344 342 342 343 343 341 340 339 339 341 340 345 345 343 343 341 339 336 336 335 333 331 329 330 330 330 330 328 327 327 326 326 324 324 324 324 324
339 337 337 340 344 345 344 345 346 343 343 345 345 345 343 343 341 340 339 336 336 338 339 342 345 342 341 342 340 339 337 336 334 331 329 330 330 329 330 329 327 328 326 326 324 325 325 324 325
336 336 337 338 344 343 343 344 344 345 342 343 344 344 344 343 341 340 338 335 334 335 336 339 342 341 341 341 341 337 336 332 332 331 330 330 330 330 331 329 328 328 326 326 326 327 325 325 326
335 335 335 341 345 345 344 343 343 342 342 344 345 343 344 345 341 340 338 336 334 335 336 337 339 341 341 339 335 333 334 332 331 331 330 330 330 331 331 329 329 328 326 327 327 327 326 326 326
334 335 336 340 344 344 344 342 342 341 344 344 342 344 345 343 340 340 340 338 336 335 336 337 338 341 339 336 333 334 333 333 331 329 329 330 330 331 332 331 328 328 326 327 327 328 328 326 326
334 335 335 338 344 343 342 343 342 342 342 342 341 344 343 342 342 340 342 340 337 337 337 337 338 340 337 335 334 332 331 332 330 328 331 330 330 331 332 332 329 329 328 327 328 328 329 327 328
334 335 337 340 341 341 343 341 343 342 343 342 341 341 340 341 342 342 343 342 341 338 336 337 339 339 338 337 332 332 332 332 331 330 330 332 333 332 332 332 331 330 328 327 328 327 328 329 326
335 336 340 341 341 344 344 341 345 343 343 343 342 342 342 342 342 342 343 343 342 339 336 337 338 338 336 335 333 333 332 331 331 329 332 334 333 333 332 331 331 331 331 329 328 328 329 327 328
338 340 341 341 340 341 345 342 341 341 341 340 342 341 341 341 340 341 341 344 344 342 338 336 337 337 336 335 334 333 332 329 332 330 332 333 333 333 333 331 332 332 331 331 329 329 329 330 330
340 343 342 342 341 338 344 343 343 341 341 339 340 338 340 340 339 340 342 342 341 344 343 338 336 336 336 334 334 334 331 329 334 333 334 333 333 333 332 333 332 332 332 330 330 329 329 331 331
340 341 340 340 339 337 344 341 345 341 343 343 340 339 341 341 340 341 340 340 340 341 344 341 337 337 336 336 336 335 333 332 335 333 334 335 333 332 333 334 333 333 332 332 331 330 330 330 331
339 339 339 341 342 338 339 340 342 341 342 341 340 342 343 342 341 341 341 342 341 341 343 343 340 339 338 338 338 339 338 337 335 333 334 335 336 335 335 332 331 332 332 331 331 330 330 329 331
336 338 340 341 339 340 337 337 341 340 340 340 341 343 342 340 339 340 339 339 339 340 342 343 343 341 342 342 341 341 339 339 338 337 335 335 336 336 335 333 333 333 332 332 332 330 330 331 330
338 339 340 341 339 340 338 339 339 342 344 344 343 342 341 339 337 336 335 334 335 334 337 342 343 342 343 343 342 342 341 339 339 339 334 336 338 336 336 335 334 334 333 333 333 332 329 329 329
338 339 341 342 343 339 340 337 344 344 345 344 343 342 340 337 335 333 333 334 334 335 335 340 344 343 343 342 340 339 338 338 337 337 332 336 338 338 337 336 333 333 332 331 332 330 329 328 327
Wind_Speed
3 3 5 7 5 3 10 11 3 10 7 6 5 5 11 11 9 4 11 8 10 12 11 10 11 9 8 8 6 5 6 4 5 4 4 4 4 4 5 5 5 5 5 5 4 5 5 6 6
4 4 6 5 1 7 10 5 13 10 9 7 6 4 6 11 9 13 14 8 12 12 11 8 10 9 7 6 5 5 5 5 5 4 4 2 3 4 4 4 4 4 4 5 4 4 4 5 6
5 4 5 1 7 10 10 9 9 9 5 3 3 6 4 8 7 8 12 14 14 12 9 8 9 9 7 6 5 5 5 5 5 4 4 4 5 5 6 6 6 6 5 5 6 5 4 4 5
5 7 5 3 11 9 9 8 6 6 4 2 3 9 8 6 9 8 14 14 13 11 10 8 9 7 6 6 4 3 4 6 6 4 3 5 5 6 6 6 6 6 5 5 5 6 6 5 5
6 4 3 7 10 6 4 4 1 4 5 7 2 7 11 9 10 13 14 15 13 11 9 8 10 8 7 6 5 4 5 7 7 6 5 5 4 4 4 4 5 5 5 5 5 5 6 7 7
5 4 1 7 7 5 4 1 4 2 4 7 6 9 9 12 12 13 14 14 12 11 9 9 10 9 8 6 5 7 8 8 7 5 4 4 3 2 1 2 2 3 5 5 5 4 4 4 5
6 4 5 3 5 4 4 2 2 4 3 8 7 7 8 12 11 13 14 13 12 11 10 9 8 9 7 6 6 7 8 8 6 4 3 3 4 3 3 2 1 3 5 6 5 7 5 4 2
4 4 4 2 4 1 5 3 1 2 9 7 0 3 10 14 13 14 14 13 12 11 10 9 9 9 8 6 7 7 7 6 4 2 2 4 2 3 4 3 2 3 5 5 5 6 7 4 1
2 5 1 2 3 5 5 6 2 3 7 4 5 10 10 17 15 15 13 12 11 11 10 10 10 9 8 7 7 6 5 4 2 1 2 2 1 2 2 2 2 3 4 5 5 6 7 4 1
5 4 7 6 6 8 3 7 10 5 6 7 10 10 14 16 14 13 13 13 14 14 14 13 11 11 9 8 8 7 5 3 2 0 1 1 1 2 3 3 3 4 4 4 6 7 6 6 3
1 9 8 3 6 6 4 2 2 2 4 7 12 12 13 14 13 12 12 12 14 15 15 16 14 14 12 10 9 7 5 4 3 2 1 2 1 2 2 3 4 3 4 4 7 6 4 4 4
8 5 8 7 3 1 1 3 5 6 6 4 2 11 12 11 11 11 11 11 12 14 16 17 17 16 16 13 11 8 7 6 5 3 2 1 1 1 2 3 3 3 3 6 7 7 4 3 3
7 4 3 4 3 1 1 3 4 6 5 5 6 10 10 8 6 7 10 11 12 15 16 19 19 19 17 16 12 12 9 7 5 4 2 1 2 1 0 2 3 3 3 6 8 5 4 3 2
5 3 2 2 5 2 5 2 5 6 4 5 5 5 5 4 6 9 11 14 14 15 17 19 21 20 17 16 14 12 10 9 7 6 4 3 3 1 1 2 4 4 5 6 6 4 3 3 2
2 5 3 3 4 0 4 7 4 3 2 3 4 4 2 3 6 9 12 14 15 15 18 18 19 19 18 17 16 13 11 10 9 7 7 5 4 1 1 2 3 3 4 5 5 2 1 2 2
5 4 5 6 2 3 5 4 4 3 1 2 2 2 2 3 4 4 7 11 12 12 12 17 18 18 19 16 15 13 12 10 10 9 8 8 6 4 1 3 3 3 4 4 4 3 3 2 2
5 5 3 2 3 2 4 7 5 5 4 3 2 2 2 3 2 0 4 7 9 5 5 13 17 17 17 15 13 13 11 11 11 10 9 8 7 5 4 3 2 3 3 3 3 2 3 3 3
7 5 1 6 4 3 3 4 5 5 1 0 1 3 4 2 2 3 5 8 7 5 6 11 15 15 15 12 11 10 11 10 11 11 11 9 8 7 6 5 4 3 3 2 2 3 2 4 4
5 7 8 1 2 6 4 4 3 3 3 6 4 3 4 2 5 2 2 2 3 3 9 14 16 16 15 13 11 9 10 8 11 11 11 10 9 9 8 6 5 4 3 3 3 3 2 2 1
5 9 9 3 2 6 5 5 4 4 6 3 1 4 1 4 7 5 2 3 3 2 5 8 12 14 13 10 9 6 5 6 9 10 11 12 11 10 10 8 5 6 5 4 5 5 4 3 2
9 8 11 8 1 2 9 6 9 8 6 4 3 4 3 2 2 3 1 1 1 2 5 8 13 16 18 14 11 7 4 6 9 11 10 11 13 13 12 11 9 8 7 6 6 6 6 6 4
13 6 6 4 8 7 7 4 9 4 1 2 2 3 2 1 1 3 3 5 5 4 8 12 15 16 16 16 14 11 9 8 7 8 8 9 12 14 15 14 13 11 9 7 8 9 8 7 8
7 5 4 4 5 7 2 10 11 5 6 4 2 4 2 2 3 4 2 5 5 6 10 12 11 13 14 16 16 13 12 9 8 11 8 10 11 13 15 15 15 13 11 10 10 9 9 9 10
5 4 5 4 4 9 6 5 11 9 7 7 8 7 5 5 4 4 3 4 5 6 9 11 14 15 17 17 17 16 14 16 11 12 11 10 11 12 14 15 15 15 14 12 11 12 12 12 11
4 8 3 3 2 7 3 5 7 7 4 4 4 6 7 6 8 9 8 8 6 7 9 11 13 16 18 18 18 16 19 15 12 13 14 9 11 13 14 15 16 16 17 15 13 13 14 14 14
5 5 7 10 6 2 5 3 7 6 4 3 2 4 8 9 10 11 13 12 12 8 6 12 13 14 16 17 15 13 13 13 12 14 13 11 10 11 10 13 15 16 17 17 15 14 15 15 16
5 7 4 6 4 10 1 5 5 9 7 5 7 7 10 10 10 11 13 13 12 8 2 10 12 12 11 12 12 10 10 12 12 14 13 13 12 11 13 15 14 15 15 16 16 16 17 16 17
6 2 5 7 6 8 2 5 6 9 7 5 6 9 9 8 10 9 11 14 13 11 7 5 8 10 11 10 11 10 9 10 12 12 14 14 12 13 13 14 16 15 14 15 16 17 18 16 19
4 7 4 5 5 9 7 5 6 8 6 5 6 7 6 7 8 9 10 12 14 15 12 7 5 5 6 7 8 8 10 11 11 12 9 13 13 14 15 15 16 16 16 14 15 17 19 19 18
4 4 4 7 2 4 8 10 5 7 4 5 6 5 6 6 9 9 10 12 13 14 14 9 5 5 6 6 7 7 8 10 10 12 10 7 9 11 13 13 13 14 14 15 16 19 19 19 15
Wind_Direction
207 220 270 243 219 108 67 67 16 52 77 66 81 2 56 30 6 36 137 131 139 135 136 137 146 153 157 170 189 160 161 158 140 131 111 96 73 66 63 57 33 24 21 10 3 353 353 342 347
212 265 238 273 343 82 70 54 59 51 75 102 106 152 43 68 59 114 138 153 148 139 139 144 152 152 149 176 154 143 151 153 151 142 130 99 82 92 79 57 45 35 25 21 13 0 341 335 331
230 273 284 18 45 57 85 77 71 97 90 53 96 40 30 83 105 128 116 150 150 143 133 143 140 147 154 152 149 152 161 162 157 153 143 123 114 107 90 77 70 66 54 34 23 18 6 355 344
254 192 209 48 71 80 60 84 58 111 108 73 67 81 98 46 126 118 140 150 148 145 142 155 138 144 148 150 160 169 172 170 166 161 149 136 126 117 103 92 78 64 50 30 9 352 348 344 330
246 242 120 83 95 90 83 40 73 116 90 79 355 102 102 106 114 132 148 157 158 151 144 146 144 153 156 157 163 162 158 165 164 160 153 149 137 120 106 90 72 51 36 24 9 353 339 333 327
230 282 172 77 95 112 109 123 156 118 104 104 106 102 104 130 149 155 160 165 162 157 149 156 162 162 163 164 156 149 144 156 160 156 154 167 169 167 115 89 52 30 10 6 9 8 351 334 340
308 290 36 55 95 180 96 173 166 63 53 85 105 83 117 154 151 164 172 171 171 165 166 163 163 168 162 166 153 147 146 153 159 168 207 225 225 241 267 277 327 344 351 351 355 351 355 348 339
276 267 251 113 63 110 146 190 67 5 71 98 60 38 127 141 160 169 174 176 176 176 178 172 172 172 169 165 162 156 156 160 159 186 251 251 260 299 309 288 277 352 342 345 354 355 353 357 352
295 261 44 39 270 57 147 188 160 74 135 131 92 67 95 143 164 174 177 178 183 191 191 187 181 178 180 166 178 161 166 174 151 33 6 83 343 355 9 329 316 343 344 349 2 0 2 357 317
273 297 21 356 342 323 167 231 149 175 153 131 115 103 125 157 173 181 185 188 193 199 200 197 192 189 184 180 183 183 178 180 180 151 180 44 50 35 53 45 11 345 343 352 349 349 348 356 334
73 359 357 11 358 323 340 222 80 0 183 108 124 127 152 170 184 196 200 209 203 208 203 201 196 195 192 188 193 199 191 198 203 186 142 29 67 54 45 26 19 17 3 335 332 327 323 349 342
282 20 350 6 13 302 123 96 106 67 64 25 67 134 156 178 188 210 216 213 221 215 209 206 202 198 196 194 196 207 205 203 211 201 174 97 115 77 14 20 25 4 0 339 333 324 321 318 332
260 41 0 51 119 50 107 82 69 81 46 85 116 143 172 189 207 224 249 258 244 226 218 213 206 200 197 193 200 205 214 214 214 203 174 115 138 120 278 44 26 18 7 352 346 349 336 325 327
7 356 58 63 68 112 246 114 240 80 18 119 139 151 174 205 251 268 269 272 264 251 232 219 209 202 196 196 200 208 217 218 214 216 188 177 167 168 14 18 19 22 0 355 345 357 352 337 319
180 244 238 164 9 151 300 224 64 59 89 97 143 141 214 239 268 277 291 301 296 270 241 226 212 204 198 199 204 210 223 224 222 215 204 191 189 219 327 0 352 356 347 347 350 334 351 325 265
248 259 279 86 355 118 239 80 126 72 107 85 109 151 242 299 292 322 316 319 321 290 250 220 210 204 201 201 201 213 225 226 227 222 212 204 205 210 316 321 335 337 325 343 352 332 310 304 283
187 12 357 130 42 325 251 0 133 105 70 346 244 195 166 193 161 229 338 348 4 7 187 198 204 204 199 197 200 214 224 228 227 224 217 213 215 213 229 278 295 297 315 334 340 316 307 295 299
36 348 70 323 58 274 312 35 122 169 316 60 88 199 205 211 138 26 0 15 20 68 135 179 193 198 194 195 199 218 226 230 218 218 218 215 220 229 234 265 286 279 290 271 324 330 319 300 313
327 303 302 55 40 297 5 317 105 153 203 174 207 189 218 271 135 145 80 54 61 104 160 173 180 187 186 188 196 208 226 234 233 227 220 217 223 230 229 241 232 235 259 264 271 288 264 252 286
308 303 278 193 151 287 2 335 66 141 119 147 188 199 140 137 170 161 118 67 53 146 175 170 173 177 185 196 201 221 258 245 245 237 230 224 220 226 234 235 227 224 234 239 248 258 273 246 283
276 310 310 313 74 186 306 167 121 126 138 135 145 174 149 54 237 184 180 0 245 185 166 175 180 186 184 188 189 196 188 238 246 242 239 235 221 221 225 220 219 216 229 229 230 236 247 280 245
294 358 276 259 275 352 2 340 112 150 100 186 156 142 60 44 334 225 223 219 221 189 172 182 191 192 196 198 198 198 213 214 257 246 231 229 226 218 218 215 215 213 223 233 232 235 243 244 269
330 307 239 219 264 293 151 283 103 158 138 78 85 80 75 18 352 352 266 237 227 180 187 193 194 202 208 205 205 205 215 219 235 239 234 239 225 223 213 214 217 220 224 227 230 229 232 242 261
130 161 196 199 273 264 80 299 106 78 47 67 67 63 55 31 351 5 338 277 256 221 201 193 194 204 213 216 212 210 216 217 216 226 228 225 227 214 217 217 222 227 229 230 229 230 230 235 249
251 218 222 257 300 291 121 251 47 77 55 19 36 51 45 15 20 7 9 352 328 239 231 214 200 207 217 220 222 217 226 223 234 217 231 223 224 222 219 219 224 233 233 229 229 227 230 235 248
243 297 308 304 292 0 153 267 95 77 68 116 113 53 37 17 15 15 25 16 9 356 235 222 215 217 224 226 233 235 235 239 239 226 234 227 228 230 228 230 230 239 236 229 231 233 238 245 249
122 245 16 289 210 267 50 147 138 141 115 120 79 54 42 43 44 39 42 31 25 22 276 236 237 242 253 255 249 246 244 244 235 227 230 237 233 237 239 233 231 239 236 231 233 241 244 253 252
289 69 230 201 276 290 139 240 121 174 136 102 71 65 69 52 42 37 31 29 20 13 10 298 269 277 291 285 274 263 253 253 240 237 229 235 232 232 234 239 242 236 234 234 236 242 250 254 267
180 209 251 297 291 308 292 72 80 116 104 94 90 85 70 50 31 20 23 25 16 14 13 353 332 317 317 312 307 280 267 266 249 234 236 232 235 238 241 241 243 239 238 240 245 252 262 268 271
295 327 274 284 161 241 301 297 90 125 122 126 113 94 59 41 20 14 18 16 16 12 7 23 15 5 2 348 332 310 282 268 262 251 243 248 248 246 248 246 242 248 250 250 250 256 265 268 257